Dewpoint
59 39 45 42 41 31 15 18 10 13 16 12 7 8 7 10 10 7 6 8 7 37 34 49 49 46 45 47 49 50 52 46 49 37 48 65 67 66 66 66 67 66 67 67 69 69 70 71 71 71 71 70 70 70 69 69 70 70 70 72 72 73 73 73 73 73 73 73 73 73 73 73 72 72 72 72 72 72 72 71 71 71 70 70 70 70 70 70 71 71 71 71 70 71 71 70 70
34 40 41 40 33 16 13 15 12 9 10 9 7 6 8 8 13 8 5 7 9 27 36 48 50 53 56 54 52 51 47 55 61 61 66 66 67 67 68 68 67 66 67 68 67 69 68 70 71 71 71 70 70 69 69 69 70 70 71 71 72 72 72 73 73 73 73 73 73 73 73 72 73 73 72 72 72 72 72 71 70 70 70 70 69 69 70 70 70 71 71 71 71 71 71 70 70
36 35 18 24 24 14 12 12 10 11 7 7 6 6 13 9 6 6 6 8 13 38 45 47 52 52 50 50 49 47 49 60 60 64 65 67 66 68 68 68 67 67 68 68 67 68 68 70 71 71 70 70 70 69 69 69 70 70 70 71 71 72 72 72 72 73 73 73 73 73 73 73 72 73 72 72 72 72 71 71 70 70 69 69 69 69 69 69 70 70 71 71 71 70 70 70 69
44 39 26 15 9 14 13 13 13 9 7 7 7 7 9 9 5 7 8 10 10 32 41 44 43 53 50 46 49 52 50 59 62 63 65 65 64 68 69 69 68 67 68 67 67 66 69 71 71 71 70 70 70 70 69 69 69 70 70 71 72 72 72 72 72 73 73 73 73 73 73 73 72 72 72 71 71 70 70 70 69 69 69 70 69 68 69 69 70 71 71 71 71 70 69 68 68
31 26 26 14 12 16 14 13 10 9 8 6 6 7 9 6 7 9 8 10 20 25 40 42 37 50 56 54 53 46 58 63 62 64 64 64 66 68 69 69 67 67 67 66 67 67 68 71 71 71 71 70 70 69 69 69 70 70 71 71 72 72 73 73 73 73 73 73 73 72 72 72 72 71 71 71 71 71 70 70 70 70 69 69 70 70 70 70 69 70 70 70 70 69 68 68 69
24 22 20 19 11 22 12 10 12 9 8 7 6 6 7 6 7 9 9 12 23 30 40 36 30 45 47 56 58 55 61 57 64 63 64 65 67 70 70 70 67 67 66 67 68 67 69 71 71 71 71 70 70 69 69 70 70 71 71 72 72 73 73 73 73 73 72 73 72 72 72 72 72 72 72 72 71 71 70 70 69 69 69 69 68 68 68 69 69 70 69 69 69 68 68 70 70
15 18 17 14 13 11 8 7 6 6 6 7 6 6 6 5 5 9 7 9 17 33 36 31 40 36 22 58 58 63 64 64 62 64 64 66 69 71 71 69 67 66 68 68 68 67 69 71 71 71 71 70 70 70 69 70 70 71 71 72 73 73 73 73 73 73 73 73 72 72 72 72 72 72 71 71 70 70 69 69 69 68 68 68 68 67 67 68 68 70 69 68 67 67 69 70 70
25 15 13 9 6 14 7 4 4 5 5 4 5 5 5 10 11 8 8 9 4 6 40 35 40 38 45 52 46 63 64 64 65 65 65 67 70 72 71 69 66 66 66 68 68 69 72 71 71 71 71 70 70 69 70 70 70 72 71 72 72 73 73 73 73 73 73 72 73 73 72 71 71 70 70 70 70 71 71 70 70 69 68 68 68 68 68 68 68 69 69 67 67 68 69 69 70
15 9 21 9 5 7 9 3 2 3 2 10 7 12 28 10 17 12 8 8 9 9 8 6 22 33 31 46 44 62 64 65 65 67 65 69 71 72 71 68 64 64 66 66 68 71 69 71 72 71 71 70 70 69 70 70 71 71 72 72 72 73 73 73 73 73 73 73 73 72 72 72 71 71 71 70 71 70 70 69 69 68 68 68 67 67 67 67 68 68 68 67 67 68 69 70 69
15 11 14 6 0 0 3 5 -0 1 -1 4 3 3 6 1 12 13 8 5 4 7 8 3 24 35 41 44 52 58 63 66 66 66 66 70 72 72 71 68 66 64 66 66 69 69 69 71 72 71 71 70 70 70 70 71 71 71 72 73 73 73 73 73 73 73 73 73 72 72 72 72 72 71 71 70 70 69 68 68 68 68 67 68 67 67 67 66 67 66 67 67 67 68 69 70 69
12 9 13 12 7 2 -0 0 -1 -2 3 4 3 8 3 3 8 6 5 5 4 2 4 11 25 30 35 44 51 66 66 66 66 66 68 70 72 71 69 68 66 67 67 67 69 69 69 69 71 71 71 71 71 71 71 71 71 72 72 73 73 73 73 73 73 73 73 73 72 72 72 72 71 70 69 69 69 69 69 69 69 68 68 67 68 68 67 66 66 66 67 67 67 68 69 69 69
9 12 10 4 2 2 -3 -7 -6 -2 4 4 3 1 2 3 0 1 3 -1 -3 -1 3 17 14 21 31 39 55 65 66 66 66 66 69 70 69 70 69 67 68 68 68 67 68 69 68 68 69 71 71 71 71 71 71 71 72 72 73 73 73 73 73 73 73 73 73 72 72 72 72 71 70 70 70 70 69 69 68 68 69 68 67 67 66 66 66 66 66 67 68 68 68 68 69 70 69
8 11 7 1 -3 -4 -4 -3 -2 -0 -0 0 2 -2 2 3 3 5 4 5 6 9 12 14 14 35 33 36 61 66 66 66 66 68 70 69 69 68 69 68 68 68 68 67 67 66 68 68 67 67 69 71 71 71 71 71 72 72 72 73 73 73 73 73 72 73 73 72 72 72 71 71 70 70 69 69 69 69 69 67 67 68 67 67 67 65 66 66 66 67 68 68 68 68 68 70 69
7 9 10 4 -1 -1 2 1 -0 -6 -1 -5 -0 6 6 3 4 8 18 19 19 17 18 18 20 37 32 42 63 64 66 65 65 68 68 69 69 68 69 69 68 68 67 66 67 66 67 66 67 68 67 68 69 71 71 72 72 72 72 72 72 73 72 72 73 73 72 72 72 72 71 71 70 70 69 69 69 69 69 69 68 68 68 68 67 67 66 66 67 68 68 67 67 68 68 69 70
9 10 10 5 1 6 -1 -0 -7 -4 -5 -4 3 4 7 10 9 16 24 33 36 42 34 33 22 35 35 47 50 59 65 65 66 69 69 70 70 70 70 68 68 68 67 67 67 66 65 66 66 68 69 67 68 69 69 70 72 72 72 72 72 72 72 72 72 72 72 71 71 71 71 71 71 70 69 69 69 70 69 69 69 69 69 68 67 67 69 68 67 67 68 67 68 68 68 69 70
13 16 10 10 2 4 1 -1 -3 -3 -6 -2 6 9 8 9 16 22 40 49 48 45 42 36 36 33 39 43 40 57 65 65 68 70 69 69 69 69 68 67 67 67 67 68 67 65 65 65 67 66 67 67 68 69 69 69 71 71 71 71 71 72 72 72 72 72 71 71 71 71 71 71 71 70 70 69 69 69 68 68 69 69 68 68 68 68 67 67 67 67 68 68 69 68 68 69 70
21 15 10 9 6 2 -1 0 -3 -2 -7 2 7 9 9 8 11 29 50 54 46 40 38 40 38 40 52 42 55 65 65 67 69 69 69 69 68 67 67 67 67 67 68 68 66 66 65 66 67 66 67 68 68 69 69 69 68 70 70 70 71 71 71 72 72 71 71 71 71 71 71 71 71 71 71 69 70 68 69 69 68 68 68 68 68 68 68 67 68 68 67 66 66 68 69 69 70
16 13 10 10 5 -0 1 -1 0 2 -1 3 6 10 10 8 11 31 50 54 51 45 39 52 48 54 58 59 63 65 66 67 68 68 67 67 68 67 67 67 66 66 67 67 67 67 67 68 68 67 67 68 68 68 68 69 69 67 67 68 69 70 71 71 71 70 70 70 71 71 69 69 68 68 69 67 67 69 69 69 69 69 69 69 68 68 69 69 68 68 67 65 65 66 68 69 69
15 12 11 6 4 2 3 2 2 2 -3 6 8 11 11 10 11 18 21 43 49 46 44 54 55 54 59 62 64 65 66 67 68 67 67 67 67 66 66 67 66 66 66 66 68 68 69 69 69 67 68 69 68 68 68 68 67 67 66 66 67 68 69 69 68 68 67 68 67 65 67 68 66 67 68 67 68 69 70 69 69 69 69 69 69 69 68 69 69 68 67 66 65 66 66 63 66
15 14 10 7 7 6 10 7 4 4 5 7 8 11 11 11 11 18 21 35 47 46 42 51 50 56 58 63 64 65 66 66 68 67 66 66 66 66 66 66 66 66 66 66 67 69 68 68 69 68 69 69 68 67 67 67 66 66 64 65 65 67 68 67 68 66 67 67 66 66 65 67 67 68 68 69 68 68 69 70 70 70 70 69 69 68 67 68 67 67 66 66 66 62 62 60 60
14 12 13 11 6 13 12 9 5 7 7 9 11 12 11 11 12 15 28 33 38 46 43 46 51 54 58 63 64 65 66 66 66 67 67 66 66 66 66 66 65 66 66 66 67 68 69 69 69 69 69 69 68 67 67 66 66 63 63 62 64 64 66 66 66 67 67 67 66 66 65 67 66 66 67 67 63 65 64 65 67 68 66 68 67 64 65 65 68 63 62 64 60 60 60 62 61
15 14 13 7 19 14 11 9 7 9 15 13 12 10 9 14 12 20 27 21 32 41 45 46 48 57 60 63 64 64 65 66 66 66 66 66 66 66 67 66 67 66 66 66 67 68 69 69 69 69 68 68 68 67 66 65 65 63 63 63 62 64 64 66 66 66 65 66 66 66 66 66 66 64 66 65 66 67 64 64 65 65 64 65 64 65 63 65 64 61 61 60 59 60 61 62 63
15 21 15 14 18 13 8 16 14 16 13 13 12 12 15 13 13 13 14 19 28 52 53 50 57 58 60 62 64 65 63 65 66 65 66 66 66 66 66 66 65 66 66 66 67 68 69 69 69 68 68 68 68 66 65 65 63 63 64 64 64 63 64 64 63 64 66 66 66 66 66 63 64 63 65 66 67 68 67 67 66 66 66 64 65 64 64 64 63 61 61 62 61 59 59 60 62
15 11 13 14 21 14 20 16 17 19 17 17 15 17 15 14 12 15 26 28 36 51 56 54 58 60 60 62 64 65 63 64 65 66 66 66 66 66 66 65 65 66 65 66 67 67 68 69 69 69 68 68 67 67 66 63 64 64 65 65 65 63 63 64 63 65 66 65 66 66 65 64 63 65 67 67 67 68 68 68 68 67 68 66 67 65 64 61 61 61 63 61 61 61 59 59 58
15 10 15 17 17 16 14 16 18 18 19 17 17 16 14 14 13 15 19 29 47 54 57 59 59 59 59 61 64 63 64 65 65 66 66 65 66 66 66 65 66 66 65 67 66 67 68 68 69 68 68 68 67 67 65 63 63 65 65 64 63 65 65 64 64 66 65 63 66 66 67 66 65 68 68 68 68 69 69 69 68 68 68 67 68 67 67 68 65 61 62 60 62 62 62 62 58
13 9 11 18 19 17 15 16 15 16 16 17 16 14 13 12 30 26 26 39 57 57 57 59 59 59 60 61 63 63 65 65 65 66 65 65 66 66 66 65 66 65 66 66 66 67 68 69 68 68 68 67 67 66 64 63 63 64 64 65 64 66 64 65 66 64 64 64 63 66 66 67 68 68 69 68 68 69 68 69 70 69 69 69 69 69 67 68 67 66 65 61 57 61 61 62 61
15 11 10 17 16 16 18 17 17 15 15 17 15 13 11 31 31 19 35 57 61 59 58 58 58 58 60 59 62 65 65 65 65 66 66 66 66 65 66 66 66 66 66 66 66 66 68 68 67 68 68 68 67 65 63 64 64 64 63 64 65 64 65 65 64 64 65 65 65 67 68 68 69 68 67 67 67 68 69 68 68 69 68 69 69 68 69 68 68 67 67 67 64 61 61 61 61
16 13 13 17 15 14 17 19 18 18 16 16 15 13 12 31 37 25 47 61 61 59 58 59 58 58 58 59 63 64 65 66 65 66 65 65 65 66 66 66 67 67 66 66 66 67 67 67 67 67 67 67 66 65 64 64 64 63 64 64 64 65 66 64 63 65 65 63 66 68 68 68 68 68 68 68 68 68 68 67 68 68 68 68 69 68 69 69 69 68 69 69 69 68 63 62 62
15 15 13 13 12 12 16 16 17 19 15 14 14 12 11 15 26 24 41 57 62 59 58 58 58 58 59 59 63 64 64 65 65 65 65 65 65 66 66 67 67 66 66 67 66 67 66 67 67 67 66 67 66 65 64 64 65 64 63 64 65 65 65 65 65 66 66 66 67 67 68 68 69 69 69 69 68 68 68 69 70 70 69 69 70 69 70 69 69 69 69 68 68 68 67 66 62
9 12 8 8 11 11 11 11 14 16 14 13 13 8 7 9 19 36 48 53 61 61 57 58 57 58 59 61 62 63 65 65 65 64 64 65 66 66 67 67 67 67 67 66 67 67 66 67 67 67 67 66 66 65 65 63 65 64 64 65 66 66 64 64 65 66 67 67 68 68 68 68 69 69 68 69 68 68 70 70 70 69 69 69 69 70 68 68 68 68 67 67 66 66 65 65 63
7 5 5 7 7 5 7 9 12 13 13 13 12 10 6 8 13 34 50 51 57 57 57 58 57 58 59 61 62 63 65 65 65 65 66 66 66 66 67 68 68 68 67 67 67 67 66 67 67 66 66 66 66 65 66 65 66 64 65 66 66 67 66 65 65 67 66 67 67 67 68 69 69 68 69 69 68 68 68 67 67 67 69 69 68 68 68 68 67 67 66 65 66 66 64 64 63
5 3 4 3 4 4 8 10 11 9 11 12 11 12 7 8 10 41 50 52 56 56 57 57 57 58 60 61 62 63 64 64 65 65 66 66 67 66 67 67 67 68 67 67 68 67 66 67 67 66 66 65 66 66 67 66 66 66 66 66 68 68 66 67 67 68 68 68 68 68 68 69 69 69 69 68 68 68 67 67 67 68 68 68 68 68 68 66 67 68 68 68 66 65 65 64 64
5 5 7 0 3 6 10 11 10 10 10 11 11 5 7 7 27 48 53 53 56 55 56 57 57 59 60 61 62 63 63 64 64 64 65 65 66 66 67 67 67 68 68 68 68 67 66 67 67 66 65 66 67 67 68 67 67 68 68 68 69 69 68 69 68 69 69 69 68 68 69 69 68 68 69 68 68 68 67 67 66 68 68 67 67 67 66 66 66 65 66 68 68 66 63 64 64
7 6 7 1 3 3 5 9 9 9 10 10 11 9 7 11 33 52 57 56 55 55 56 57 57 59 61 61 62 62 63 63 63 63 64 65 65 66 65 66 67 67 67 67 67 67 66 67 66 66 65 67 68 68 68 67 68 68 68 68 69 68 69 68 68 68 69 68 69 68 68 68 68 68 68 68 68 68 67 67 67 68 67 67 67 67 66 66 66 66 66 66 66 67 65 64 65
10 10 10 11 6 4 2 6 7 10 11 10 11 10 9 27 32 45 50 54 54 55 57 58 58 58 61 61 60 61 63 62 63 63 64 65 64 64 65 66 66 66 66 66 67 67 66 66 66 65 65 68 68 68 69 68 69 69 68 69 68 68 68 68 68 67 68 69 68 68 68 69 68 68 68 69 68 68 67 67 67 68 67 66 67 66 66 66 66 66 66 65 66 65 64 65 66
6 4 6 10 6 2 2 4 8 8 10 8 9 8 8 17 32 34 47 52 53 55 59 60 59 59 60 60 59 62 63 62 63 63 63 64 65 65 65 65 66 66 66 67 66 66 66 67 66 65 67 68 68 68 68 68 67 67 67 67 67 66 67 66 68 68 68 67 68 68 68 69 68 68 68 69 69 68 67 66 67 67 66 66 66 65 64 65 66 65 65 65 65 64 65 64 65
8 6 5 5 1 2 5 6 6 8 8 8 9 10 7 14 24 32 44 53 53 55 59 59 59 58 59 59 60 61 61 61 63 62 62 65 66 65 65 65 66 66 66 66 66 66 66 65 66 65 67 68 67 67 67 66 66 67 67 66 66 67 66 68 67 68 68 67 68 67 68 68 68 68 68 68 68 68 67 67 67 66 66 66 66 66 66 65 65 65 64 65 65 65 63 64 64
9 5 3 2 3 2 4 7 6 7 15 7 11 8 9 12 24 28 45 53 52 55 58 60 58 58 59 61 61 60 59 60 61 61 62 62 62 65 65 65 65 65 66 66 66 66 66 66 65 66 67 68 67 68 68 68 68 67 67 66 66 66 66 65 66 68 69 69 69 68 68 68 68 68 68 68 68 68 67 66 67 66 68 66 66 65 66 66 66 65 65 64 65 63 63 63 63
6 4 4 3 2 3 7 6 7 6 8 8 6 8 7 13 22 25 44 52 53 53 53 58 57 58 60 61 60 60 59 59 60 60 61 61 63 64 65 65 65 65 66 66 66 66 66 66 66 67 67 67 68 67 68 68 68 68 67 66 66 65 66 68 69 68 69 67 69 69 68 68 68 67 68 68 69 68 68 67 66 66 67 67 66 65 65 65 65 65 65 63 62 64 63 64 64
10 6 7 4 2 4 6 8 7 6 9 8 11 8 9 17 26 29 43 47 53 52 51 57 56 56 58 59 61 60 59 59 61 61 61 61 62 64 64 64 64 65 66 66 66 66 66 66 66 67 67 67 67 67 68 69 68 69 68 67 68 67 67 68 69 68 68 67 67 68 67 68 67 67 67 68 69 69 69 67 69 67 69 69 67 67 66 66 67 66 67 65 64 62 61 62 65
12 7 4 3 2 3 3 6 8 8 8 10 9 12 10 24 30 35 42 46 48 57 59 59 58 58 54 61 62 61 60 60 60 61 61 61 62 63 63 63 64 64 65 65 66 65 66 66 67 67 67 67 68 67 69 69 68 68 67 67 67 67 67 65 65 64 65 66 65 67 67 67 67 67 67 68 68 69 70 70 69 67 67 67 66 65 65 64 65 65 66 67 66 64 61 62 63
10 9 6 4 6 4 6 8 7 9 11 7 7 8 11 26 29 28 34 42 46 54 55 54 54 57 60 60 61 61 62 61 61 61 61 61 61 61 63 63 64 64 64 65 65 66 66 66 67 67 67 67 68 68 69 69 67 67 66 64 63 63 63 64 63 64 63 64 64 66 66 65 66 67 66 67 68 68 69 68 68 67 66 66 65 66 66 66 66 68 67 67 67 67 64 63 62
12 9 7 7 7 7 6 6 6 8 8 6 10 7 11 16 22 28 32 37 41 50 53 50 49 53 57 59 59 60 60 61 61 62 61 61 61 61 62 63 63 64 65 65 66 65 66 66 66 67 67 68 67 67 68 67 67 66 65 64 64 63 62 64 65 65 65 63 65 66 66 68 66 66 66 66 66 65 66 66 66 66 65 65 65 65 65 65 63 64 64 66 65 65 66 64 64
7 9 8 7 7 7 7 6 5 7 8 11 9 6 9 11 15 24 30 34 36 45 48 49 46 50 54 58 59 60 59 60 60 60 61 61 62 62 62 63 63 64 65 65 65 65 66 66 66 68 68 68 68 69 68 68 66 66 65 64 64 63 63 64 65 65 66 65 66 65 65 65 65 65 65 65 64 64 65 65 65 65 64 64 63 63 64 64 64 64 65 66 67 65 65 64 63
5 9 7 7 6 8 7 6 7 10 13 11 9 7 10 12 16 18 27 30 34 38 42 47 45 46 52 56 59 59 59 59 60 60 60 61 61 62 63 63 64 64 65 65 65 66 66 66 66 66 66 66 68 67 67 66 65 65 64 65 64 64 64 64 63 63 64 65 64 64 64 62 63 64 63 64 64 63 63 63 64 64 63 63 62 62 64 64 65 65 65 64 64 65 65 65 65
5 9 8 9 8 7 7 7 6 10 14 12 9 8 8 6 22 13 20 25 28 34 38 37 40 45 50 54 57 59 59 59 60 60 60 61 62 63 64 64 64 64 66 66 66 66 66 65 65 66 67 67 67 67 66 66 65 65 64 65 64 63 63 63 62 63 64 64 63 63 63 63 62 63 64 63 63 61 61 62 62 62 63 62 62 63 64 64 64 64 65 65 65 65 64 64 64
6 6 6 8 8 10 11 11 10 13 11 11 6 7 4 4 10 16 19 21 24 32 36 38 41 45 51 55 55 56 57 59 60 60 60 61 63 63 63 64 64 65 65 65 65 65 66 66 66 65 66 66 65 65 65 65 65 65 65 64 64 63 63 63 62 63 62 63 62 62 62 62 61 61 61 63 62 61 62 61 62 62 63 63 62 62 64 63 64 64 64 64 64 64 63 64 63
6 3 3 5 10 11 16 14 14 12 11 9 7 7 7 7 9 12 22 18 19 31 34 36 40 45 50 54 54 55 58 59 59 59 61 61 62 62 63 63 63 64 64 64 64 65 65 65 65 64 65 65 65 65 65 64 64 64 64 64 63 63 63 62 62 61 60 61 60 60 60 60 60 59 60 59 60 60 60 60 61 61 61 62 62 63 63 63 62 62 62 63 63 63 63 63 63
4 2 3 6 7 16 11 11 12 10 9 9 4 6 10 7 14 19 22 20 18 25 29 33 37 42 51 54 54 54 58 59 59 59 60 61 61 62 62 62 63 63 63 64 64 64 64 64 64 63 63 64 64 64 64 64 63 63 63 63 63 62 62 61 61 60 60 59 59 58 58 57 57 57 57 58 58 59 58 58 58 58 59 61 61 61 62 62 62 63 62 63 63 63 62 62 62
3 2 5 5 6 8 11 8 11 10 10 11 10 8 7 11 10 20 28 37 36 29 30 32 36 44 50 52 54 56 58 59 60 60 61 61 61 62 62 62 62 62 63 63 63 64 63 63 63 62 62 63 63 63 63 63 62 62 62 61 61 61 61 61 60 59 58 58 58 58 57 57 56 57 57 56 57 57 56 57 57 57 58 58 59 60 61 61 62 60 61 61 62 62 62 63 63
2 0 -0 7 8 9 12 7 10 10 8 12 10 10 11 7 15 39 49 49 48 48 48 43 39 43 51 52 54 56 58 59 60 60 60 60 61 61 61 62 62 62 62 63 63 63 62 62 62 62 61 61 62 62 61 61 60 61 60 60 60 60 59 59 58 58 58 57 57 57 57 56 56 56 55 56 56 57 57 57 57 57 57 58 58 59 59 60 61 61 61 62 62 62 62 62 62
2 1 1 4 6 11 6 11 11 13 11 15 15 13 17 12 44 47 45 48 48 49 48 48 49 50 52 52 55 56 58 59 60 60 60 60 62 61 61 62 62 62 62 62 62 62 62 61 61 61 61 61 60 60 60 60 59 59 59 59 59 58 57 57 56 56 57 57 57 56 56 56 56 55 56 56 56 56 55 56 56 56 57 58 58 58 59 59 60 60 60 61 61 61 61 61 61
6 1 4 2 4 3 17 20 24 21 16 14 17 16 28 39 44 46 44 43 46 48 49 50 51 53 53 54 55 57 58 59 61 60 60 61 61 62 61 60 61 62 61 62 62 62 62 61 61 61 60 60 60 60 59 59 59 59 58 57 57 57 57 57 56 57 57 57 57 57 56 55 56 55 55 55 55 55 55 55 55 55 56 56 56 56 57 58 58 58 59 59 59 60 60 59 59
5 3 1 2 2 5 16 8 15 11 11 13 16 12 16 22 21 43 45 44 43 46 48 50 53 52 53 54 55 56 58 61 61 60 60 61 60 59 59 60 61 61 62 61 62 62 61 62 61 60 60 59 59 58 58 58 58 57 57 57 57 57 56 56 56 56 56 56 56 55 55 54 54 54 53 54 54 54 54 53 54 54 54 54 55 55 55 56 57 56 58 57 58 58 58 58 58
5 3 5 5 11 14 18 12 12 9 10 8 14 14 14 19 27 36 42 44 45 46 47 50 51 52 52 54 55 56 60 60 60 60 58 57 58 59 59 60 60 60 60 60 60 60 61 61 60 59 59 58 58 58 57 57 57 56 56 56 56 56 55 55 55 55 56 55 54 54 54 53 54 53 52 53 53 52 52 53 53 53 53 53 54 54 54 54 55 55 56 56 56 56 56 56 57
11 9 2 3 11 14 10 13 15 14 8 10 8 12 11 24 29 32 35 41 46 47 47 48 50 52 53 55 56 58 58 58 57 56 57 58 58 58 59 59 58 59 58 58 58 59 59 59 58 58 58 57 57 57 57 56 56 55 56 55 55 53 54 53 54 53 53 54 53 53 52 53 53 52 52 52 51 51 52 52 52 52 52 53 52 53 53 53 54 54 55 55 55 55 54 55 55
11 11 7 6 16 10 6 16 6 10 10 8 9 19 21 25 26 31 29 36 46 48 48 49 51 51 54 57 58 56 55 55 55 57 58 58 58 58 58 57 56 57 58 58 58 57 57 57 57 56 57 56 56 56 55 55 55 55 55 55 54 54 54 53 54 53 54 54 53 53 52 53 52 52 52 51 51 51 51 51 51 51 51 52 52 52 53 53 53 53 53 53 53 53 53 53 54
7 9 9 6 8 11 10 11 5 3 9 11 9 12 23 39 43 47 34 30 42 48 48 50 51 52 56 57 55 54 55 55 55 57 58 57 57 56 57 57 57 57 58 57 57 57 56 56 57 57 55 54 54 54 53 54 54 54 54 54 54 54 53 53 54 54 53 52 52 52 52 51 52 51 51 50 50 51 51 51 51 50 50 50 50 51 52 52 52 52 53 53 52 51 51 52 52